Skip Page Navigation
NASA JPL Caltech
NASA Logo - Jet Propulsion Laboratory + View the NASA Portal
+ Center for Near-Earth Object Studies
JPL Home Earth Solar System Stars & Galaxies Technology
JPL Solar System Dynamics
BODIES ORBITS EPHEMERIDES TOOLS PHYSICAL DATA DISCOVERY FAQ SITE MAP
JPL Small-Body Database Browser
Search: [ help ]  
(2020 HC6)
Classification: Apollo [NEO]          SPK-ID: 54016747
Ephemeris | Orbit Diagram | Orbital Elements | Mission Design | Physical Parameters | Close-Approach Data ]

[ show orbit diagram ]
Orbital Elements at Epoch 2459000.5 (2020-May-31.0) TDB
Reference: JPL 14 (heliocentric ecliptic J2000)
 Element Value Uncertainty (1-sigma)   Units 
e .2753272512952668 4.702e-07  
a 1.350308287633189 8.4554e-07 au
q .9785316183979242 7.8029e-08 au
i 4.881812392449683 8.3506e-06 deg
node 224.5332303517074 6.5397e-06 deg
peri 35.79974415106918 3.6991e-05 deg
M 355.9276788231054 2.3191e-05 deg
tp 2459006.983169087940
(2020-Jun-06.48316909)
3.3048e-05 TDB
period 573.1229857066566
1.57
0.00053832
1.474e-06
d
yr
n .6281374311939741 5.9e-07 deg/d
Q 1.722084956868453 1.0783e-06 au
  Orbit Determination Parameters
   # obs. used (total)      109  
   # delay obs. used      1  
   # Doppler obs. used      1  
   data-arc span      17 days  
   first obs. used      2020-04-24  
   last obs. used      2020-05-11  
   planetary ephem.      DE431  
   SB-pert. ephem.      SB431-N16  
   condition code      3  
   norm. resid. RMS      .35074  
   source      ORB  
   producer      Giorgini  
   solution date      2020-Jun-18 14:12:37  

Additional Information
 Earth MOID = .00590463 au 
 Jupiter MOID = 3.33989 au 
 T_jup = 4.829 
[ show covariance matrix ]

Ephemeris | Orbit Diagram | Orbital Elements | Mission Design | Physical Parameters | Close-Approach Data ]

Physical Parameter Table
Parameter Symbol Value Units Sigma Reference Notes
absolute magnitude H 25.39   .42066 14 autocmod 2.8

[ hide close-approach data ]
Close-Approach Data   ...sorted by Date/Time (TDB)
Date/Time (TDB) Time Uncertainty
(days_HH:MM)
Body Nominal Distance (au) Minimum Distance (au) Maximum Distance (au) V-relative (km/s) V-infinity (km/s) JD (TDB) Time Uncertainty (minutes) Semi-major axis (km) Semi-minor axis (km) range-LOV angle (deg) N-sigma BP Orbit Ref. Reference Modified
1908-Apr-25 15:42 07:27 Earth 0.0847765925933307 0.0816173177650137 0.0879363718842267 8.40284977873361 8.39910861694131 2418057.154069921 447.329572472329 157890.10384319 3.76911024964725 3.96355624065738 196732.791657719 T 14 CATAB v2.0f-lin.ifort 2020-Jun-18 14:17:09 2020-Jun-18 14:17
1908-Aug-29 05:27 23:56 Earth 0.317797389991132 0.315411155078731 0.320190574412868 2.8884050117187 2.88550083975678 2418182.726910561 1436.45463672345 140355.173216257 30.1911579707096 33.0395627511329 119671.26891106 T 14 CATAB v2.0f-lin.ifort 2020-Jun-18 14:17:09 2020-Jun-18 14:17
1911-Feb-19 23:29 06:41 Earth 0.483283396738975 0.481848157011597 0.484718921432828 6.83640116559712 6.83559465781891 2419087.478598533 401.422495728738 73930.515244032 29.8875231050027 -14.567629783255 312875.234605626 T 14 CATAB v2.0f-lin.ifort 2020-Jun-18 14:17:09 2020-Jun-18 14:17
1911-Aug-19 02:11 04:00 Earth 0.375937685782068 0.37288797913429 0.378989138643981 16.2500682127225 16.2496320514179 2419267.591190366 239.750982998805 157394.236184601 21.0627346575723 -14.8819881606758 570999.049325922 T 14 CATAB v2.0f-lin.ifort 2020-Jun-18 14:17:09 2020-Jun-18 14:17
1922-Apr-11 15:28 03:43 Earth 0.299260350799615 0.296400685664644 0.302120119552046 14.5927630432935 14.5921528959498 2423156.144675544 223.000791745131 142872.631511427 5.46216520631848 3.56928065544265 426156.052899406 T 14 CATAB v2.0f-lin.ifort 2020-Jun-18 14:17:09 2020-Jun-18 14:17
1922-Sep-29 04:00 06:21 Earth 0.443269070995863 0.441885843975937 0.444652586675089 6.48071627746689 6.47978869399864 2423326.666787681 380.607730469968 71252.3010998332 22.3156048788724 14.5847958089666 353034.182263604 T 14 CATAB v2.0f-lin.ifort 2020-Jun-18 14:17:09 2020-Jun-18 14:17
1925-Mar-17 04:06 11:43 Earth 0.365456662702411 0.363632999506201 0.367280353276295 4.12551949406854 4.12375186604375 2424226.670855438 702.542681031382 91076.2592526507 22.1932752558578 4.86524502984764 64245.7742984325 T 14 CATAB v2.0f-lin.ifort 2020-Jun-18 14:17:09 2020-Jun-18 14:17
1925-Aug-05 11:13 05:12 Earth 0.176398708786932 0.174125548415946 0.178681902223951 9.97114898433073 9.96963401185272 2424367.967145981 312.312289141217 131557.356209271 20.2412618997454 -30.300379800063 521268.660740172 T 14 CATAB v2.0f-lin.ifort 2020-Jun-18 14:17:09 2020-Jun-18 14:17
1936-Apr-01 21:57 01:37 Earth 0.484259596373634 0.482836205685696 0.485682994303534 19.9640977320702 19.9638221268549 2428260.414570869 97.4763128120637 71040.3239542122 5.91523449233244 2.40909297340002 445527.107146941 T 14 CATAB v2.0f-lin.ifort 2020-Jun-18 14:17:09 2020-Jun-18 14:17
1939-Jul-06 02:37 09:43 Earth 0.0799040768932628 0.0797168718706848 0.0800972863439973 5.4058748167734 5.39970282376226 2429450.609108916 582.52372986794 35838.2107050553 18.74574885532 -74.6809723054507 514251.601146474 T 14 CATAB v2.0f-lin.ifort 2020-Jun-18 14:17:09 2020-Jun-18 14:17
1953-May-18 03:07 01:49 Earth 0.0316009278053106 0.0314262906060763 0.0317755729489039 5.43334407210518 5.41780350551206 2434515.629981585 108.607917411849 8744.53376358432 4.92785361985712 -4.85186693267789 83405.4867646401 T 14 CATAB v2.0f-lin.ifort 2020-Jun-18 14:17:09 2020-Jun-18 14:17
1967-Jun-17 00:05 01:21 Earth 0.069791237878396 0.0697525909947011 0.0698299265377391 5.19253068846086 5.18517302051831 2439658.503798515 81.4195582199742 3313.39775789948 14.8014747758704 -54.4266478475918 465561.067524226 T 14 CATAB v2.0f-lin.ifort 2020-Jun-18 14:17:09 2020-Jun-18 14:17
1978-Apr-03 04:05 00:01 Earth 0.471300066133322 0.471285328134628 0.471314804132633 19.6243063666347 19.62401827959 2443601.670481279 1.02399112473168 735.398311750482 5.67086302546883 2.08838617139617 400949.064210488 T 14 CATAB v2.0f-lin.ifort 2020-Jun-18 14:17:09 2020-Jun-18 14:17
1981-Jul-26 05:30 00:04 Earth 0.106485898821125 0.106474817655775 0.106496982140092 7.18490818490594 7.18142477707576 2444811.729455618 3.76371677142936 936.31768748012 20.1796621050004 -53.8768911329614 515962.874745738 T 14 CATAB v2.0f-lin.ifort 2020-Jun-18 14:17:09 2020-Jun-18 14:17
1992-Apr-12 07:26 00:10 Earth 0.285759586121996 0.285628270046827 0.285890902410606 14.211009987201 14.2103538470262 2448724.809730047 10.3125901606126 6559.77783868157 5.26528368188586 3.45512624388263 406498.979859302 T 14 CATAB v2.0f-lin.ifort 2020-Jun-18 14:17:09 2020-Jun-18 14:17
1992-Sep-27 03:10 00:19 Earth 0.43789967867914 0.437834069417347 0.43796528857597 6.33719002337125 6.33622979639138 2448892.632138412 18.6161332941946 3375.72977526854 23.3231298242687 14.3614567963842 317146.966082495 T 14 CATAB v2.0f-lin.ifort 2020-Jun-18 14:17:09 2020-Jun-18 14:17
1995-Mar-03 23:28 00:26 Earth 0.428717057732839 0.428629685985306 0.42880442992512 5.68143493494529 5.6803409146673 2449780.477565885 25.7088693317915 4410.97747966021 27.3812048974185 -9.21428751381939 163498.120515007 T 14 CATAB v2.0f-lin.ifort 2020-Jun-18 14:17:09 2020-Jun-18 14:17
1995-Aug-13 05:11 00:13 Earth 0.269228299349573 0.26907806639516 0.269378543254722 13.0262754135093 13.0255156401555 2449942.716299950 13.396503446517 7966.08109696105 20.5026980003973 -19.8829114691841 540427.591530525 T 14 CATAB v2.0f-lin.ifort 2020-Jun-18 14:17:09 2020-Jun-18 14:17
2006-Apr-26 05:19 00:32 Earth 0.0895786848583997 0.0893418217125338 0.0898155494001396 8.55750696490199 8.55403041361958 2453851.721603722 32.1700650311255 11824.6015878306 3.78809911576714 2.98876591366598 153890.310629449 T 14 CATAB v2.0f-lin.ifort 2020-Jun-18 14:17:09 2020-Jun-18 14:17
2006-Aug-31 03:07 01:37 Earth 0.321863260560082 0.321685447991739 0.322041109880642 3.02253542028074 3.01979532003106 2453978.629777835 97.0423695377678 10396.3466807349 30.1771895882966 32.3638484794439 136245.983336434 T 14 CATAB v2.0f-lin.ifort 2020-Jun-18 14:17:09 2020-Jun-18 14:17
2009-Aug-22 14:29 00:14 Earth 0.44011802750634 0.439934000858711 0.440302058373273 18.2121954931686 18.2118630749185 2455066.103317349 14.0599323503755 9425.01103523842 21.6693936987352 -13.1857333397098 588405.825471764 T 14 CATAB v2.0f-lin.ifort 2020-Jun-18 14:17:09 2020-Jun-18 14:17
2020-May-08 19:21 < 00:01 Moon 0.00776203098995804 0.00776200636520979 0.00776205561470652 5.38209663585575 5.38131208055209 2458978.306421147 0.0144081933444641 1.29220103529394 1.21557182176672 -66.4445003544444 1009019.19641597 T 14 CATAB v2.0f-lin.ifort 2020-Jun-18 14:17:09 2020-Jun-18 14:17
2020-May-09 10:55 < 00:01 Earth 0.00742330624952829 0.00742327684423722 0.00742333565482064 6.04623020898706 5.98657089757577 2458978.955000532 0.0143041368191697 1.48007460872008 1.26626693052305 -6.90747190132439 733600.412826998 T 14 CATAB v2.0f-lin.ifort 2020-Jun-18 14:17:09 2020-Jun-18 14:17
2031-Apr-22 18:13 00:21 Earth 0.132747768315648 0.132557769795192 0.132937767836449 9.8254606750766 9.82341763276597 2462979.259036258 20.8618608267841 9491.89651093715 4.35166089066672 3.62209661696263 237022.622988863 T 14 CATAB v2.0f-lin.ifort 2020-Jun-18 14:17:09 2020-Jun-18 14:17
2031-Sep-09 00:27 00:47 Earth 0.353802969496303 0.353678642400075 0.353927304072715 4.1434442179725 4.14162625651392 2463118.518609880 47.117819983574 6709.88155192215 29.9311602629199 22.8255728167856 186632.239363554 T 14 CATAB v2.0f-lin.ifort 2020-Jun-18 14:17:09 2020-Jun-18 14:17
2042-Apr-10 20:14 00:21 Earth 0.324874843623388 0.324594694596402 0.325154993207117 15.4111536606916 15.4106214683491 2466985.342762642 21.3356633226868 13986.0019327282 5.30956611073796 2.79823977014473 373642.781117339 T 14 CATAB v2.0f-lin.ifort 2020-Jun-18 14:17:09 2020-Jun-18 14:17
